AAL404 KDFW-KMIA

Flight info

Callsign AAL404
Flight time 2h 19m
Altitude 37000
Route MRSSH3 ZALEA HRV Q105 BLVNS Y290 DOWRY FROGZ5
Aircraft B738/M-SDE2E3FGHIRWXY/LB1

Departure

Time 2026-05-07 11:12
Airport Dallas Fort Worth International Airport (KDFW)

Arrival

Time 2026-05-07 13:31
Airport Miami International Airport (KMIA)
Time Latitude Longitude Altitude Speed Heading
2026-05-07 10:37 32.89709 -97.03478 597 ft 0 kts 285°
2026-05-07 10:58 32.89708 -97.03474 597 ft 2 kts 284°
2026-05-07 10:58 32.89705 -97.03454 597 ft 3 kts 269°
2026-05-07 10:58 32.89707 -97.03431 597 ft 3 kts 245°
2026-05-07 10:59 32.89718 -97.03412 597 ft 3 kts 214°
2026-05-07 10:59 32.89734 -97.03403 597 ft 2 kts 185°
2026-05-07 10:59 32.89738 -97.03403 597 ft 0 kts 181°
2026-05-07 11:04 32.89736 -97.03403 597 ft 2 kts 181°
2026-05-07 11:04 32.89715 -97.03383 579 ft 6 kts 122°
2026-05-07 11:04 32.89692 -97.03330 597 ft 9 kts 150°
2026-05-07 11:05 32.89618 -97.03317 597 ft 13 kts 180°
2026-05-07 11:05 32.89517 -97.03319 597 ft 16 kts 180°
2026-05-07 11:05 32.89393 -97.03319 597 ft 19 kts 180°
2026-05-07 11:05 32.89254 -97.03319 597 ft 12 kts 180°
2026-05-07 11:06 32.89160 -97.03320 597 ft 15 kts 180°
2026-05-07 11:06 32.89042 -97.03320 597 ft 18 kts 180°
2026-05-07 11:06 32.88931 -97.03321 597 ft 12 kts 180°
2026-05-07 11:06 32.88839 -97.03321 597 ft 15 kts 180°
2026-05-07 11:07 32.88729 -97.03322 597 ft 17 kts 180°
2026-05-07 11:07 32.88603 -97.03323 597 ft 19 kts 180°
2026-05-07 11:07 32.88523 -97.03317 597 ft 11 kts 163°
2026-05-07 11:07 32.88438 -97.03290 597 ft 14 kts 178°
2026-05-07 11:08 32.88330 -97.03290 597 ft 17 kts 180°
2026-05-07 11:08 32.88209 -97.03291 597 ft 19 kts 180°
2026-05-07 11:08 32.88083 -97.03291 597 ft 9 kts 180°
2026-05-07 11:08 32.88009 -97.03284 597 ft 12 kts 157°
2026-05-07 11:09 32.87951 -97.03211 597 ft 13 kts 159°
2026-05-07 11:09 32.87889 -97.03159 597 ft 12 kts 77°
2026-05-07 11:09 32.87898 -97.03129 597 ft 0 kts 75°
2026-05-07 11:10 32.87900 -97.03115 597 ft 5 kts 83°
2026-05-07 11:10 32.87902 -97.03047 597 ft 10 kts 87°
2026-05-07 11:10 32.87960 -97.03008 597 ft 7 kts
2026-05-07 11:10 32.87966 -97.03008 597 ft 0 kts
2026-05-07 11:11 32.87996 -97.03008 597 ft 22 kts
2026-05-07 11:11 32.88453 -97.03006 597 ft 111 kts
2026-05-07 11:11 32.89504 -97.03002 638 ft 187 kts
2026-05-07 11:11 32.90926 -97.02953 1119 ft 216 kts
2026-05-07 11:12 32.92487 -97.02897 1636 ft 232 kts
2026-05-07 11:12 32.94129 -97.02872 2160 ft 238 kts
2026-05-07 11:12 32.95767 -97.02880 2650 ft 233 kts
2026-05-07 11:12 32.97377 -97.02856 3151 ft 231 kts 10°
2026-05-07 11:13 32.98781 -97.01982 3622 ft 238 kts 48°
2026-05-07 11:13 32.99440 -97.00126 4115 ft 255 kts 84°
2026-05-07 11:13 32.99242 -96.97982 4677 ft 266 kts 97°
2026-05-07 11:13 32.98841 -96.95801 5184 ft 272 kts 101°
2026-05-07 11:14 32.98363 -96.93620 5668 ft 277 kts 103°
2026-05-07 11:14 32.97860 -96.91385 6167 ft 282 kts 104°
2026-05-07 11:14 32.97352 -96.89111 6676 ft 287 kts 105°
2026-05-07 11:14 32.96842 -96.86790 7146 ft 293 kts 105°
2026-05-07 11:15 32.96328 -96.84418 7629 ft 298 kts 105°
2026-05-07 11:15 32.95810 -96.81998 8117 ft 304 kts 104°
2026-05-07 11:15 32.95286 -96.79533 8619 ft 309 kts 104°
2026-05-07 11:15 32.94757 -96.77027 9122 ft 314 kts 104°
2026-05-07 11:16 32.94229 -96.74517 9615 ft 319 kts 104°
2026-05-07 11:16 32.93687 -96.71931 10001 ft 324 kts 104°
2026-05-07 11:16 32.93137 -96.69308 9981 ft 326 kts 104°
2026-05-07 11:16 32.92573 -96.66619 10023 ft 349 kts 104°
2026-05-07 11:17 32.91959 -96.63693 10044 ft 380 kts 104°
2026-05-07 11:17 32.91319 -96.60643 10929 ft 376 kts 104°
2026-05-07 11:17 32.90690 -96.57642 11949 ft 373 kts 105°
2026-05-07 11:17 32.90057 -96.54625 12704 ft 379 kts 105°
2026-05-07 11:18 32.89408 -96.51542 13367 ft 388 kts 106°
2026-05-07 11:18 32.88753 -96.48437 14035 ft 395 kts 106°
2026-05-07 11:18 32.88070 -96.45203 14679 ft 401 kts 107°
2026-05-07 11:18 32.87396 -96.42010 15359 ft 405 kts 107°
2026-05-07 11:19 32.86704 -96.38739 16058 ft 409 kts 107°
2026-05-07 11:19 32.86004 -96.35434 16718 ft 414 kts 107°
2026-05-07 11:19 32.85295 -96.32092 17378 ft 419 kts 108°
2026-05-07 11:19 32.84577 -96.28711 18034 ft 424 kts 108°
2026-05-07 11:20 32.83848 -96.25282 18650 ft 429 kts 108°
2026-05-07 11:20 32.83113 -96.21831 19188 ft 434 kts 108°
2026-05-07 11:20 32.82367 -96.18334 19723 ft 439 kts 108°
2026-05-07 11:20 32.81610 -96.14793 20261 ft 444 kts 108°
2026-05-07 11:21 32.80844 -96.11212 20807 ft 449 kts 108°
2026-05-07 11:21 32.80072 -96.07605 21326 ft 453 kts 109°
2026-05-07 11:21 32.79289 -96.03954 21855 ft 458 kts 109°
2026-05-07 11:21 32.78505 -96.00308 22343 ft 463 kts 109°
2026-05-07 11:22 32.77730 -95.96707 22804 ft 468 kts 109°
2026-05-07 11:22 32.76918 -95.92939 23283 ft 473 kts 109°
2026-05-07 11:22 32.76098 -95.89140 23754 ft 477 kts 109°
2026-05-07 11:22 32.75268 -95.85297 24125 ft 481 kts 109°
2026-05-07 11:23 32.74434 -95.81443 24640 ft 481 kts 109°
2026-05-07 11:23 32.73600 -95.77590 25143 ft 482 kts 109°
2026-05-07 11:23 32.72759 -95.73715 25540 ft 486 kts 110°
2026-05-07 11:23 32.71907 -95.69804 25911 ft 491 kts 110°
2026-05-07 11:24 32.71048 -95.65865 26318 ft 494 kts 110°
2026-05-07 11:24 32.70184 -95.61908 26735 ft 497 kts 110°
2026-05-07 11:24 32.69314 -95.57930 27130 ft 500 kts 110°
2026-05-07 11:24 32.68447 -95.53971 27503 ft 503 kts 111°
2026-05-07 11:25 32.67562 -95.49939 27877 ft 506 kts 111°
2026-05-07 11:25 32.66670 -95.45880 28242 ft 510 kts 111°
2026-05-07 11:25 32.65772 -95.41799 28607 ft 513 kts 111°
2026-05-07 11:25 32.64867 -95.37694 28965 ft 516 kts 111°
2026-05-07 11:26 32.63954 -95.33558 29317 ft 518 kts 111°
2026-05-07 11:26 32.63035 -95.29406 29664 ft 521 kts 111°
2026-05-07 11:26 32.62113 -95.25243 30005 ft 524 kts 112°
2026-05-07 11:26 32.61181 -95.21046 30313 ft 527 kts 112°
2026-05-07 11:27 32.60245 -95.16833 30606 ft 529 kts 112°
2026-05-07 11:27 32.59304 -95.12605 30916 ft 531 kts 112°
2026-05-07 11:27 32.58360 -95.08371 31228 ft 532 kts 112°
2026-05-07 11:27 32.57410 -95.04118 31517 ft 534 kts 112°
2026-05-07 11:28 32.56466 -94.99899 31785 ft 536 kts 112°
2026-05-07 11:28 32.55544 -94.95786 32054 ft 537 kts 112°
2026-05-07 11:28 32.54583 -94.91506 32415 ft 536 kts 112°
2026-05-07 11:28 32.53625 -94.87235 32864 ft 533 kts 113°
2026-05-07 11:29 32.52674 -94.83004 33229 ft 531 kts 113°
2026-05-07 11:29 32.51729 -94.78802 33820 ft 523 kts 112°
2026-05-07 11:29 32.50797 -94.74665 34359 ft 518 kts 112°
2026-05-07 11:29 32.49860 -94.70528 34545 ft 521 kts 113°
2026-05-07 11:30 32.47952 -94.62178 34806 ft 528 kts 112°
2026-05-07 11:30 32.46994 -94.57982 35028 ft 529 kts 112°
2026-05-07 11:30 32.46033 -94.53771 35228 ft 531 kts 112°
2026-05-07 11:31 32.45068 -94.49541 35452 ft 531 kts 112°
2026-05-07 11:31 32.44104 -94.45323 35698 ft 531 kts 112°
2026-05-07 11:31 32.43138 -94.41100 35950 ft 531 kts 112°
2026-05-07 11:31 32.42172 -94.36885 36206 ft 531 kts 112°
2026-05-07 11:32 32.40237 -94.28468 36773 ft 529 kts 113°
2026-05-07 11:32 32.39268 -94.24267 37002 ft 529 kts 113°
2026-05-07 11:32 32.38295 -94.20064 37105 ft 532 kts 113°
2026-05-07 11:33 32.37312 -94.15829 37087 ft 535 kts 113°
2026-05-07 11:33 32.35359 -94.07412 37075 ft 532 kts 113°
2026-05-07 11:34 32.33435 -93.99139 37078 ft 529 kts 113°
2026-05-07 11:34 32.31479 -93.90780 37076 ft 526 kts 113°
2026-05-07 11:35 32.29526 -93.82449 37082 ft 525 kts 113°
2026-05-07 11:35 32.27577 -93.74152 37075 ft 523 kts 113°
2026-05-07 11:36 32.25956 -93.67272 37073 ft 523 kts 113°
2026-05-07 11:36 32.23998 -93.58983 37079 ft 524 kts 113°
2026-05-07 11:37 32.21967 -93.50721 37065 ft 520 kts 119°
2026-05-07 11:37 32.20523 -93.46855 37073 ft 509 kts 128°
2026-05-07 11:37 32.18701 -93.43337 37068 ft 495 kts 139°
2026-05-07 11:38 32.14471 -93.36964 37073 ft 494 kts 140°
2026-05-07 11:38 32.10211 -93.30576 37069 ft 496 kts 140°
2026-05-07 11:39 32.05963 -93.24128 37071 ft 499 kts 139°
2026-05-07 11:39 32.01716 -93.17644 37036 ft 500 kts 139°
2026-05-07 11:40 31.97476 -93.11166 37057 ft 499 kts 139°
2026-05-07 11:40 31.93232 -93.04699 37056 ft 498 kts 139°
2026-05-07 11:41 31.89086 -92.98398 37063 ft 497 kts 139°
2026-05-07 11:41 31.84854 -92.91979 37065 ft 496 kts 139°
2026-05-07 11:42 31.80632 -92.85584 37063 ft 494 kts 139°
2026-05-07 11:42 31.76420 -92.79217 37014 ft 493 kts 139°
2026-05-07 11:43 31.72224 -92.72882 37046 ft 490 kts 139°
2026-05-07 11:43 31.68030 -92.66564 37036 ft 489 kts 139°
2026-05-07 11:44 31.63847 -92.60274 37060 ft 488 kts 139°
2026-05-07 11:44 31.59670 -92.54000 37054 ft 487 kts 139°
2026-05-07 11:45 31.55495 -92.47741 37035 ft 487 kts 139°
2026-05-07 11:45 31.51321 -92.41494 37039 ft 486 kts 139°
2026-05-07 11:46 31.47177 -92.35301 37037 ft 485 kts 138°
2026-05-07 11:46 31.43009 -92.29081 37023 ft 485 kts 138°
2026-05-07 11:47 31.38836 -92.22864 37031 ft 485 kts 138°
2026-05-07 11:47 31.34668 -92.16665 37038 ft 484 kts 138°
2026-05-07 11:48 31.30499 -92.10474 37034 ft 484 kts 138°
2026-05-07 11:48 31.26326 -92.04288 37043 ft 485 kts 138°
2026-05-07 11:49 31.22220 -91.98210 37016 ft 484 kts 138°
2026-05-07 11:49 31.18047 -91.92041 37041 ft 483 kts 138°
2026-05-07 11:50 31.13879 -91.85890 37025 ft 482 kts 138°
2026-05-07 11:50 31.09716 -91.79756 37017 ft 482 kts 138°
2026-05-07 11:51 31.05554 -91.73634 37022 ft 481 kts 138°
2026-05-07 11:51 31.01396 -91.67528 37020 ft 481 kts 138°
2026-05-07 11:52 30.97239 -91.61433 37013 ft 481 kts 138°
2026-05-07 11:52 30.93081 -91.55345 37010 ft 480 kts 138°
2026-05-07 11:53 30.88926 -91.49271 37014 ft 479 kts 138°
2026-05-07 11:53 30.84773 -91.43210 37023 ft 479 kts 138°
2026-05-07 11:54 30.80620 -91.37157 37026 ft 478 kts 138°
2026-05-07 11:54 30.76467 -91.31115 37028 ft 478 kts 138°
2026-05-07 11:55 30.72313 -91.25081 37021 ft 478 kts 138°
2026-05-07 11:55 30.68159 -91.19055 37020 ft 478 kts 138°
2026-05-07 11:56 30.64032 -91.13077 37011 ft 477 kts 137°
2026-05-07 11:56 30.59877 -91.07068 37035 ft 477 kts 137°
2026-05-07 11:57 30.55720 -91.01065 37019 ft 477 kts 137°
2026-05-07 11:57 30.51634 -90.95175 37025 ft 477 kts 137°
2026-05-07 11:58 30.47465 -90.89173 36996 ft 477 kts 137°
2026-05-07 11:58 30.43298 -90.83182 36980 ft 478 kts 137°
2026-05-07 11:59 30.39122 -90.77189 36964 ft 478 kts 137°
2026-05-07 11:59 30.34948 -90.71207 36975 ft 477 kts 136°
2026-05-07 12:00 30.30773 -90.65232 36975 ft 477 kts 136°
2026-05-07 12:00 30.26593 -90.59259 36981 ft 478 kts 136°
2026-05-07 12:01 30.22405 -90.53285 36989 ft 478 kts 136°
2026-05-07 12:01 30.18213 -90.47313 36986 ft 478 kts 136°
2026-05-07 12:02 30.14019 -90.41346 36986 ft 479 kts 136°
2026-05-07 12:02 30.09815 -90.35375 36964 ft 478 kts 136°
2026-05-07 12:03 30.05614 -90.29416 36988 ft 479 kts 136°
2026-05-07 12:03 30.01408 -90.23460 36996 ft 479 kts 136°
2026-05-07 12:04 29.97196 -90.17503 36990 ft 480 kts 136°
2026-05-07 12:04 29.92996 -90.11573 36994 ft 481 kts 136°
2026-05-07 12:05 29.88752 -90.05587 36978 ft 482 kts 136°
2026-05-07 12:05 29.84582 -89.99717 36974 ft 482 kts 136°
2026-05-07 12:06 29.80277 -89.93818 36976 ft 480 kts 137°
2026-05-07 12:06 29.75945 -89.87949 36977 ft 481 kts 137°
2026-05-07 12:07 29.71617 -89.82063 36976 ft 482 kts 137°
2026-05-07 12:07 29.67291 -89.76181 36978 ft 482 kts 137°
2026-05-07 12:08 29.62955 -89.70296 36980 ft 482 kts 137°
2026-05-07 12:08 29.58617 -89.64414 36983 ft 483 kts 137°
2026-05-07 12:09 29.54268 -89.58524 36984 ft 483 kts 137°
2026-05-07 12:09 29.49926 -89.52651 36979 ft 482 kts 137°
2026-05-07 12:10 29.45580 -89.46781 36983 ft 482 kts 137°
2026-05-07 12:10 29.41237 -89.40925 36985 ft 482 kts 137°
2026-05-07 12:11 29.36897 -89.35081 36990 ft 481 kts 137°
2026-05-07 12:11 29.32585 -89.29282 36987 ft 481 kts 137°
2026-05-07 12:12 29.28220 -89.23421 36983 ft 480 kts 137°
2026-05-07 12:12 29.23912 -89.17646 36969 ft 480 kts 136°
2026-05-07 12:13 29.19580 -89.11846 36986 ft 479 kts 136°
2026-05-07 12:13 29.15245 -89.06050 36993 ft 479 kts 136°
2026-05-07 12:14 29.10910 -89.00263 36993 ft 479 kts 136°
2026-05-07 12:14 29.06644 -88.94574 36995 ft 479 kts 136°
2026-05-07 12:15 29.02309 -88.88803 36995 ft 479 kts 136°
2026-05-07 12:15 28.97971 -88.83034 36992 ft 479 kts 136°
2026-05-07 12:16 28.93623 -88.77260 36983 ft 479 kts 136°
2026-05-07 12:16 28.89276 -88.71495 36996 ft 479 kts 136°
2026-05-07 12:17 28.84932 -88.65707 37000 ft 480 kts 135°
2026-05-07 12:17 28.80609 -88.59898 36999 ft 481 kts 135°
2026-05-07 12:18 28.76282 -88.54090 37002 ft 481 kts 135°
2026-05-07 12:18 28.71944 -88.48282 37003 ft 481 kts 136°
2026-05-07 12:19 28.67599 -88.42477 37001 ft 481 kts 135°
2026-05-07 12:19 28.63251 -88.36676 36996 ft 481 kts 135°
2026-05-07 12:20 28.58900 -88.30878 37008 ft 481 kts 135°
2026-05-07 12:20 28.54579 -88.25128 37007 ft 482 kts 135°
2026-05-07 12:21 28.50220 -88.19336 37007 ft 482 kts 135°
2026-05-07 12:21 28.45863 -88.13552 37008 ft 481 kts 135°
2026-05-07 12:22 28.41507 -88.07778 37002 ft 481 kts 135°
2026-05-07 12:22 28.37707 -88.01471 37011 ft 489 kts 119°
2026-05-07 12:23 28.35772 -87.95560 37025 ft 492 kts 110°
2026-05-07 12:23 28.33725 -87.88147 37008 ft 492 kts 109°
2026-05-07 12:24 28.31659 -87.80747 37010 ft 492 kts 110°
2026-05-07 12:24 28.29542 -87.73369 37010 ft 491 kts 110°
2026-05-07 12:25 28.27403 -87.66005 37016 ft 491 kts 110°
2026-05-07 12:25 28.25260 -87.58647 37012 ft 491 kts 110°
2026-05-07 12:26 28.23116 -87.51292 37015 ft 491 kts 110°
2026-05-07 12:26 28.20967 -87.43928 37016 ft 491 kts 110°
2026-05-07 12:27 28.18818 -87.36586 37018 ft 491 kts 110°
2026-05-07 12:27 28.16667 -87.29251 37015 ft 491 kts 110°
2026-05-07 12:28 28.14512 -87.21917 37022 ft 490 kts 110°
2026-05-07 12:28 28.12367 -87.14635 37018 ft 490 kts 110°
2026-05-07 12:29 28.10205 -87.07311 37025 ft 490 kts 110°
2026-05-07 12:29 28.08039 -86.99992 37024 ft 490 kts 110°
2026-05-07 12:30 28.05904 -86.92791 37022 ft 490 kts 110°
2026-05-07 12:30 28.03730 -86.85473 37026 ft 490 kts 110°
2026-05-07 12:31 28.01554 -86.78162 37022 ft 490 kts 110°
2026-05-07 12:31 27.99402 -86.70852 37028 ft 490 kts 109°
2026-05-07 12:32 27.97290 -86.63522 37027 ft 490 kts 109°
2026-05-07 12:32 27.95179 -86.56198 37020 ft 490 kts 109°
2026-05-07 12:33 27.91994 -86.45223 37033 ft 489 kts 109°
2026-05-07 12:33 27.89865 -86.37919 37032 ft 489 kts 109°
2026-05-07 12:34 27.87746 -86.30665 37033 ft 489 kts 109°
2026-05-07 12:34 27.85611 -86.23369 37032 ft 489 kts 109°
2026-05-07 12:35 27.83472 -86.16075 37034 ft 489 kts 109°
2026-05-07 12:35 27.81331 -86.08794 37041 ft 488 kts 109°
2026-05-07 12:36 27.79188 -86.01517 37040 ft 488 kts 109°
2026-05-07 12:36 27.77078 -85.94370 37031 ft 488 kts 109°
2026-05-07 12:37 27.74928 -85.87105 37047 ft 488 kts 109°
2026-05-07 12:37 27.72775 -85.79843 37050 ft 488 kts 109°
2026-05-07 12:38 27.70619 -85.72586 37039 ft 488 kts 110°
2026-05-07 12:38 27.68459 -85.65330 37038 ft 488 kts 110°
2026-05-07 12:39 27.66294 -85.58075 37040 ft 488 kts 110°
2026-05-07 12:39 27.64126 -85.50825 37046 ft 488 kts 110°
2026-05-07 12:40 27.61955 -85.43577 37045 ft 488 kts 110°
2026-05-07 12:40 27.59780 -85.36330 37048 ft 488 kts 110°
2026-05-07 12:41 27.58109 -85.28922 37053 ft 488 kts 100°
2026-05-07 12:41 27.56940 -85.21375 37043 ft 489 kts 101°
2026-05-07 12:42 27.55650 -85.13857 37044 ft 489 kts 101°
2026-05-07 12:42 27.54317 -85.06344 37050 ft 489 kts 101°
2026-05-07 12:43 27.53009 -84.98954 37050 ft 489 kts 101°
2026-05-07 12:43 27.51681 -84.91441 37053 ft 489 kts 101°
2026-05-07 12:44 27.50347 -84.83923 37051 ft 489 kts 101°
2026-05-07 12:44 27.49010 -84.76412 37054 ft 489 kts 101°
2026-05-07 12:45 27.47673 -84.68903 37053 ft 489 kts 101°
2026-05-07 12:45 27.46334 -84.61396 37055 ft 489 kts 101°
2026-05-07 12:46 27.44992 -84.53895 37055 ft 489 kts 101°
2026-05-07 12:46 27.43645 -84.46391 37057 ft 489 kts 101°
2026-05-07 12:47 27.42294 -84.38890 37056 ft 489 kts 101°
2026-05-07 12:47 27.40938 -84.31395 37073 ft 488 kts 101°
2026-05-07 12:48 27.39588 -84.23956 37075 ft 488 kts 101°
2026-05-07 12:48 27.38226 -84.16473 37054 ft 488 kts 102°
2026-05-07 12:49 27.36861 -84.08995 37057 ft 488 kts 102°
2026-05-07 12:49 27.35493 -84.01524 37066 ft 488 kts 102°
2026-05-07 12:50 27.34142 -83.94170 37049 ft 487 kts 102°
2026-05-07 12:50 27.32769 -83.86715 37061 ft 486 kts 102°
2026-05-07 12:51 27.31393 -83.79270 37062 ft 486 kts 102°
2026-05-07 12:51 27.30015 -83.71840 37064 ft 485 kts 102°
2026-05-07 12:52 27.28635 -83.64417 37054 ft 485 kts 102°
2026-05-07 12:52 27.27251 -83.57002 37055 ft 484 kts 102°
2026-05-07 12:53 27.25864 -83.49589 37063 ft 484 kts 102°
2026-05-07 12:53 27.24477 -83.42196 37059 ft 484 kts 102°
2026-05-07 12:54 27.23085 -83.34803 37070 ft 483 kts 102°
2026-05-07 12:54 27.21690 -83.27415 37068 ft 483 kts 102°
2026-05-07 12:55 27.20301 -83.20080 37060 ft 483 kts 102°
2026-05-07 12:55 27.18899 -83.12695 37069 ft 483 kts 102°
2026-05-07 12:56 27.17493 -83.05314 37061 ft 483 kts 102°
2026-05-07 12:56 27.16104 -82.98052 37064 ft 483 kts 102°
2026-05-07 12:57 27.14690 -82.90675 37071 ft 484 kts 102°
2026-05-07 12:57 27.13077 -82.83342 37039 ft 483 kts 115°
2026-05-07 12:58 27.09643 -82.76985 37062 ft 480 kts 124°
2026-05-07 12:58 27.06060 -82.70652 37070 ft 481 kts 123°
2026-05-07 12:59 27.04290 -82.67465 36918 ft 483 kts 123°
2026-05-07 12:59 27.02525 -82.64261 36576 ft 481 kts 123°
2026-05-07 12:59 27.00781 -82.61084 36208 ft 475 kts 123°
2026-05-07 12:59 26.99059 -82.57948 35831 ft 471 kts 123°
2026-05-07 13:00 26.97345 -82.54830 35438 ft 468 kts 123°
2026-05-07 13:00 26.95643 -82.51741 35059 ft 464 kts 123°
2026-05-07 13:00 26.93952 -82.48676 34677 ft 461 kts 123°
2026-05-07 13:00 26.92264 -82.45625 34291 ft 458 kts 124°
2026-05-07 13:01 26.90296 -82.42857 33781 ft 451 kts 142°
2026-05-07 13:01 26.87922 -82.40594 33371 ft 446 kts 144°
2026-05-07 13:01 26.85536 -82.38380 32895 ft 445 kts 144°
2026-05-07 13:01 26.83187 -82.36195 32461 ft 443 kts 143°
2026-05-07 13:02 26.80829 -82.33980 32030 ft 441 kts 143°
2026-05-07 13:02 26.78490 -82.31762 31598 ft 440 kts 143°
2026-05-07 13:02 26.76168 -82.29546 31172 ft 438 kts 143°
2026-05-07 13:02 26.73853 -82.27330 30746 ft 437 kts 143°
2026-05-07 13:03 26.71546 -82.25121 30304 ft 436 kts 143°
2026-05-07 13:03 26.69241 -82.22913 29833 ft 435 kts 143°
2026-05-07 13:03 26.66948 -82.20720 29356 ft 433 kts 143°
2026-05-07 13:03 26.64667 -82.18539 28908 ft 430 kts 142°
2026-05-07 13:04 26.62400 -82.16373 28492 ft 427 kts 142°
2026-05-07 13:04 26.60153 -82.14228 28071 ft 423 kts 142°
2026-05-07 13:04 26.57921 -82.12098 27661 ft 420 kts 142°
2026-05-07 13:04 26.55700 -82.09980 27256 ft 418 kts 142°
2026-05-07 13:05 26.53528 -82.07911 26858 ft 415 kts 142°
2026-05-07 13:05 26.51352 -82.05800 26454 ft 413 kts 141°
2026-05-07 13:05 26.49218 -82.03658 26053 ft 411 kts 140°
2026-05-07 13:05 26.47107 -82.01515 25655 ft 409 kts 140°
2026-05-07 13:06 26.45083 -81.99457 25262 ft 408 kts 140°
2026-05-07 13:06 26.42991 -81.97336 24858 ft 406 kts 140°
2026-05-07 13:06 26.40900 -81.95224 24447 ft 405 kts 140°
2026-05-07 13:06 26.38816 -81.93125 24043 ft 403 kts 140°
2026-05-07 13:07 26.36747 -81.91044 23632 ft 396 kts 140°
2026-05-07 13:07 26.34727 -81.89013 23191 ft 386 kts 140°
2026-05-07 13:07 26.32755 -81.87032 22780 ft 377 kts 140°
2026-05-07 13:07 26.30821 -81.85091 22422 ft 372 kts 140°
2026-05-07 13:08 26.28933 -81.83197 22067 ft 371 kts 140°
2026-05-07 13:08 26.26991 -81.81251 21703 ft 369 kts 140°
2026-05-07 13:08 26.25080 -81.79336 21343 ft 368 kts 140°
2026-05-07 13:08 26.23369 -81.77286 20946 ft 369 kts 122°
2026-05-07 13:09 26.22198 -81.74752 20611 ft 366 kts 115°
2026-05-07 13:09 26.21113 -81.72182 20229 ft 366 kts 115°
2026-05-07 13:09 26.20035 -81.69620 19850 ft 365 kts 115°
2026-05-07 13:09 26.18953 -81.67073 19458 ft 360 kts 115°
2026-05-07 13:10 26.17886 -81.64586 19081 ft 352 kts 115°
2026-05-07 13:10 26.16834 -81.62151 18722 ft 345 kts 115°
2026-05-07 13:10 26.15797 -81.59761 18356 ft 341 kts 115°
2026-05-07 13:10 26.14767 -81.57392 17966 ft 337 kts 115°
2026-05-07 13:11 26.13750 -81.55057 17551 ft 336 kts 115°
2026-05-07 13:11 26.12723 -81.52702 17172 ft 340 kts 115°
2026-05-07 13:11 26.11690 -81.50332 16812 ft 340 kts 115°
2026-05-07 13:11 26.11007 -81.48769 16735 ft 333 kts 115°
2026-05-07 13:12 26.09709 -81.45797 16650 ft 310 kts 115°
2026-05-07 13:12 26.08779 -81.43669 16352 ft 306 kts 115°
2026-05-07 13:12 26.07823 -81.41481 15648 ft 321 kts 115°
2026-05-07 13:12 26.07165 -81.39975 15438 ft 320 kts 115°
2026-05-07 13:13 26.06182 -81.37723 14948 ft 327 kts 115°
2026-05-07 13:13 26.05205 -81.35481 14590 ft 324 kts 115°
2026-05-07 13:13 26.04232 -81.33249 14250 ft 317 kts 115°
2026-05-07 13:13 26.03281 -81.31066 13924 ft 310 kts 115°
2026-05-07 13:14 26.02346 -81.28921 13563 ft 306 kts 115°
2026-05-07 13:14 26.01422 -81.26803 13236 ft 303 kts 114°
2026-05-07 13:14 26.00510 -81.24712 12914 ft 299 kts 115°
2026-05-07 13:14 25.99616 -81.22664 12781 ft 287 kts 115°
2026-05-07 13:15 25.98766 -81.20719 12681 ft 272 kts 115°
2026-05-07 13:15 25.97954 -81.18861 12401 ft 265 kts 115°
2026-05-07 13:15 25.97156 -81.17033 12071 ft 259 kts 115°
2026-05-07 13:15 25.96376 -81.15250 11721 ft 255 kts 115°
2026-05-07 13:16 25.95602 -81.13481 11348 ft 255 kts 115°
2026-05-07 13:16 25.94820 -81.11696 11013 ft 258 kts 115°
2026-05-07 13:16 25.94030 -81.09891 10674 ft 261 kts 115°
2026-05-07 13:16 25.93228 -81.08059 10312 ft 265 kts 116°
2026-05-07 13:17 25.92416 -81.06206 9955 ft 268 kts 116°
2026-05-07 13:17 25.91594 -81.04334 9578 ft 271 kts 116°
2026-05-07 13:17 25.90806 -81.02455 9218 ft 271 kts 113°
2026-05-07 13:17 25.90076 -81.00541 8841 ft 266 kts 112°
2026-05-07 13:18 25.89390 -80.98726 8479 ft 259 kts 112°
2026-05-07 13:18 25.88705 -80.96908 8097 ft 252 kts 113°
2026-05-07 13:18 25.88029 -80.95133 7705 ft 246 kts 113°
2026-05-07 13:18 25.87369 -80.93409 7391 ft 238 kts 113°
2026-05-07 13:19 25.86737 -80.91760 7090 ft 226 kts 113°
2026-05-07 13:19 25.86134 -80.90188 6796 ft 219 kts 113°
2026-05-07 13:19 25.85533 -80.88624 6531 ft 220 kts 113°
2026-05-07 13:19 25.84934 -80.87066 6238 ft 218 kts 113°
2026-05-07 13:20 25.84341 -80.85523 5940 ft 217 kts 113°
2026-05-07 13:20 25.83750 -80.83985 5659 ft 216 kts 113°
2026-05-07 13:20 25.83164 -80.82462 5362 ft 213 kts 114°
2026-05-07 13:20 25.82588 -80.80964 5071 ft 209 kts 114°
2026-05-07 13:21 25.82022 -80.79497 4777 ft 205 kts 114°
2026-05-07 13:21 25.81465 -80.78050 4478 ft 203 kts 114°
2026-05-07 13:21 25.80912 -80.76614 4177 ft 201 kts 114°
2026-05-07 13:21 25.80363 -80.75190 3884 ft 200 kts 114°
2026-05-07 13:22 25.79824 -80.73792 3599 ft 198 kts 115°
2026-05-07 13:22 25.79285 -80.72396 3307 ft 196 kts 114°
2026-05-07 13:22 25.78750 -80.71012 3073 ft 193 kts 114°
2026-05-07 13:22 25.78425 -80.69600 3006 ft 191 kts 89°
2026-05-07 13:23 25.78529 -80.68149 3002 ft 188 kts 89°
2026-05-07 13:23 25.78578 -80.66697 3009 ft 190 kts 90°
2026-05-07 13:23 25.78627 -80.65222 3026 ft 192 kts 90°
2026-05-07 13:23 25.78682 -80.63744 3007 ft 191 kts 89°
2026-05-07 13:24 25.78740 -80.62279 3013 ft 190 kts 89°
2026-05-07 13:24 25.78800 -80.60818 3008 ft 189 kts 89°
2026-05-07 13:24 25.78860 -80.59362 2997 ft 188 kts 89°
2026-05-07 13:24 25.78920 -80.57913 3002 ft 186 kts 89°
2026-05-07 13:25 25.78979 -80.56492 3003 ft 181 kts 89°
2026-05-07 13:25 25.79036 -80.55126 2996 ft 174 kts 89°
2026-05-07 13:25 25.79092 -80.53792 3012 ft 174 kts 89°
2026-05-07 13:25 25.79151 -80.52442 3019 ft 175 kts 88°
2026-05-07 13:26 25.79219 -80.51105 3013 ft 172 kts 89°
2026-05-07 13:26 25.79277 -80.49805 3009 ft 170 kts 89°
2026-05-07 13:26 25.79331 -80.48498 2996 ft 168 kts 89°
2026-05-07 13:26 25.79381 -80.47215 2935 ft 165 kts 90°
2026-05-07 13:27 25.79433 -80.45930 2719 ft 165 kts 89°
2026-05-07 13:27 25.79483 -80.44673 2507 ft 161 kts 90°
2026-05-07 13:27 25.79532 -80.43451 2312 ft 156 kts 89°
2026-05-07 13:27 25.79580 -80.42273 2138 ft 150 kts 90°
2026-05-07 13:28 25.79623 -80.41111 1942 ft 151 kts 90°
2026-05-07 13:28 25.79670 -80.39949 1716 ft 150 kts 89°
2026-05-07 13:28 25.79721 -80.38794 1536 ft 152 kts 90°
2026-05-07 13:28 25.79767 -80.37625 1327 ft 150 kts 90°
2026-05-07 13:29 25.79813 -80.36475 1128 ft 148 kts 90°
2026-05-07 13:29 25.79859 -80.35326 943 ft 150 kts 90°
2026-05-07 13:29 25.79908 -80.34128 767 ft 154 kts 89°
2026-05-07 13:29 25.79964 -80.32994 643 ft 143 kts 90°
2026-05-07 13:30 25.79986 -80.31900 439 ft 143 kts 87°
2026-05-07 13:30 25.80047 -80.30754 257 ft 152 kts 89°
2026-05-07 13:30 25.80089 -80.29617 47 ft 141 kts 89°
2026-05-07 13:30 25.80134 -80.28618 18 ft 115 kts 88°
2026-05-07 13:31 25.80163 -80.27897 13 ft 73 kts 87°
2026-05-07 13:31 25.80180 -80.27486 18 ft 42 kts 88°
2026-05-07 13:31 25.80193 -80.27192 18 ft 28 kts 87°
2026-05-07 13:31 25.80197 -80.27041 20 ft 7 kts 97°
2026-05-07 13:32 25.80178 -80.26993 20 ft 7 kts 131°
2026-05-07 13:32 25.80130 -80.26983 20 ft 8 kts 203°
2026-05-07 13:32 25.80094 -80.27026 19 ft 8 kts 250°
2026-05-07 13:32 25.80089 -80.27064 20 ft 0 kts 266°
2026-05-07 13:34 25.80089 -80.27065 20 ft 1 kts 266°
2026-05-07 13:34 25.80084 -80.27162 21 ft 0 kts 264°
2026-05-07 13:34 25.80074 -80.27182 22 ft 6 kts 234°
2026-05-07 13:35 25.80024 -80.27209 22 ft 10 kts 206°
2026-05-07 13:35 25.79996 -80.27294 21 ft 15 kts 268°
2026-05-07 13:35 25.79991 -80.27427 18 ft 16 kts 268°
2026-05-07 13:35 25.79985 -80.27563 16 ft 17 kts 266°
2026-05-07 13:36 25.79980 -80.27694 15 ft 17 kts 267°
2026-05-07 13:36 25.79974 -80.27820 14 ft 16 kts 267°
2026-05-07 13:36 25.79969 -80.27947 11 ft 17 kts 267°
2026-05-07 13:36 25.79964 -80.28061 11 ft 12 kts 267°
2026-05-07 13:37 25.79926 -80.28137 13 ft 12 kts 208°
2026-05-07 13:37 25.79894 -80.28201 13 ft 0 kts 261°
2026-05-07 13:38 25.79893 -80.28224 13 ft 9 kts 267°
2026-05-07 13:38 25.79874 -80.28259 13 ft 3 kts 207°
2026-05-07 13:38 25.79851 -80.28264 13 ft 4 kts 182°
2026-05-07 13:38 25.79835 -80.28264 13 ft 0 kts 177°
2026-05-07 13:43 25.79829 -80.28264 13 ft 0 kts 177°